Weather History for Maastricht, Netherlands

Change the Weather History Date:

Thursday, February 6, 2014

  Actual Average Record
Temperature  
Mean Temperature 46 °F -  
Max Temperature 50 °F 43 °F 59 °F (2004)
Min Temperature 41 °F 32 °F 14 °F (2012)
Degree Days  
Heating Degree Days 20    
Moisture  
Dew Point 38 °F    
Average Humidity 72    
Maximum Humidity 87    
Minimum Humidity 53    
Precipitation  
Precipitation 0.12 in 0.07 in - ()
Sea Level Pressure  
Sea Level Pressure 29.53 in    
Wind  
Wind Speed 17 mph ()    
Max Wind Speed 26 mph    
Max Gust Speed 33 mph    
Visibility 7.6 miles    
Events Rain    
Averages and records for this station are not official NWS values.
T = Trace of Precipitation, MM = Missing Value Source: Averaged Metar Reports

Daily Weather History Graph

Daily Weather History Graph

Search for Another Location

Airport:

Trip Planner

Search our weather history database for the weather conditions in past years. The results will help you decide how hot, cold, wet, or windy it might be!

Date:

Astronomy

Feb. 06, 2014 Rise Set
Actual Time 8:05 AM CET 5:37 PM CET
Civil Twilight 7:30 AM CET 6:12 PM CET
Nautical Twilight 6:51 AM CET 6:51 PM CET
Astronomical Twilight 6:13 AM CET 7:29 PM CET
Moon 10:58 AM CET (2/6) 1:03 AM CET (2/6)
Length of Visible Light 10h 41m
Length of Day
9h 31m
Waxing Crescent, 46% of the Moon is Illuminated
Feb 6
Waxing Crescent
Feb 6
First Quarter
Feb 15
Full
Feb 22
Last Quarter
Mar 1
New

Hourly Weather History & Observations

Time (CET) Temp. Windchill Dew Point Humidity Pressure Visibility Wind Dir Wind Speed Gust Speed Precip Events Conditions
12:00 AM 45 °F - 39 °F 72% 29.50 in 17 mi SSW 22.4 mph - -   Partly Cloudy
12:25 AM 44.6 °F 36.1 °F 39.2 °F 81% 29.47 in 6.2 mi SSW 21.9 mph - N/A   Mostly Cloudy
12:55 AM 44.6 °F 35.3 °F 39.2 °F 81% 29.50 in 6.2 mi SSW 26.5 mph - N/A   Partly Cloudy
1:00 AM 45 °F - 39 °F 72% 29.52 in 13 mi SSW 24.6 mph - -   Partly Cloudy
1:25 AM 44.6 °F 35.9 °F 39.2 °F 81% 29.50 in 6.2 mi SSW 23.0 mph - N/A   Partly Cloudy
1:55 AM 46.4 °F 38.7 °F 39.2 °F 76% 29.50 in 6.2 mi SSW 20.7 mph - N/A   Mostly Cloudy
2:00 AM 46 °F - 39 °F 70% 29.54 in 12 mi SSW 20.1 mph - -   Overcast
2:25 AM 46.4 °F 39.0 °F 39.2 °F 76% 29.53 in 6.2 mi SSW 19.6 mph - N/A   Overcast
2:55 AM 46.4 °F 39.2 °F 39.2 °F 76% 29.53 in 6.2 mi SSW 18.4 mph - N/A   Overcast
3:00 AM 46 °F - 39 °F 69% 29.57 in 11 mi SW 17.9 mph - -   Overcast
3:25 AM 42.8 °F 35.8 °F 39.2 °F 87% 29.56 in 6.2 mi WSW 13.8 mph - N/A   Mostly Cloudy
3:55 AM 42.8 °F 36.6 °F 39.2 °F 87% 29.56 in 6.2 mi WSW 11.5 mph - N/A   Light Drizzle
4:00 AM 42 °F - 39 °F 83% 29.59 in 12 mi SW 13.4 mph - - Rain Rain
4:25 AM 42.8 °F 35.4 °F 39.2 °F 87% 29.56 in 6.2 mi SSW 15.0 mph - N/A   Scattered Clouds
4:55 AM 44.6 °F 36.6 °F 37.4 °F 76% 29.56 in 6.2 mi SW 19.6 mph - N/A   Mostly Cloudy
5:00 AM 44 °F - 38 °F 71% 29.60 in 10 mi SW 17.9 mph - -   Partly Cloudy
5:25 AM 44.6 °F 36.1 °F 37.4 °F 76% 29.59 in 6.2 mi SW 21.9 mph 33.4 mph N/A   Overcast
5:55 AM 44.6 °F 36.6 °F 37.4 °F 76% 29.59 in 6.2 mi SW 19.6 mph - N/A   Mostly Cloudy
6:00 AM 45 °F - 37 °F 64% 29.61 in 11 mi SW 20.1 mph - -   Partly Cloudy
6:25 AM 44.6 °F 36.6 °F 37.4 °F 76% 29.59 in 6.2 mi SW 19.6 mph - N/A   Scattered Clouds
6:55 AM 44.6 °F 36.6 °F 37.4 °F 76% 29.59 in 6.2 mi SSW 19.6 mph - N/A   Scattered Clouds
7:00 AM 43 °F - 36 °F 70% 29.62 in 10 mi SSW 17.9 mph - -   Partly Cloudy
7:25 AM 42.8 °F 34.3 °F 35.6 °F 76% 29.59 in 6.2 mi SSW 19.6 mph - N/A   Unknown
7:55 AM 42.8 °F 34.3 °F 35.6 °F 76% 29.62 in 6.2 mi SSW 19.6 mph - N/A   Partly Cloudy
8:00 AM 43 °F - 36 °F 69% 29.63 in 10 mi SSW 20.1 mph - -  
8:25 AM 42.8 °F 34.5 °F 35.6 °F 76% 29.62 in 6.2 mi SSW 18.4 mph - N/A   Unknown
8:55 AM 42.8 °F 34.8 °F 37.4 °F 81% 29.62 in 6.2 mi SSW 17.3 mph - N/A   Unknown
9:00 AM 43 °F - 37 °F 72% 29.65 in 10 mi SSW 17.9 mph - -   Scattered Clouds
9:25 AM 44.6 °F 36.9 °F 37.4 °F 76% 29.62 in 6.2 mi SSW 18.4 mph - N/A   Scattered Clouds
9:55 AM 44.6 °F 36.6 °F 37.4 °F 76% 29.65 in 6.2 mi SSW 19.6 mph - N/A   Scattered Clouds
10:00 AM 45 °F - 37 °F 66% 29.67 in 11 mi SSW 20.1 mph - -   Mostly Cloudy
10:25 AM 46.4 °F 38.7 °F 37.4 °F 71% 29.65 in 6.2 mi SSW 20.7 mph - N/A   Overcast
10:55 AM 46.4 °F 38.5 °F 37.4 °F 71% 29.65 in 6.2 mi SSW 21.9 mph - N/A   Partly Cloudy
11:00 AM 46 °F - 38 °F 65% 29.67 in 10 mi SSW 22.4 mph - -   Partly Cloudy
11:25 AM 46.4 °F 38.7 °F 37.4 °F 71% 29.65 in 6.2 mi SSW 20.7 mph - N/A   Partly Cloudy
11:55 AM 48.2 °F - 39.2 °F 71% 29.65 in 6.2 mi SSW 18.4 mph - N/A   Partly Cloudy
12:00 PM 48 °F - 39 °F 61% 29.66 in 11 mi SSW 20.1 mph - -   Scattered Clouds
12:25 PM 48.2 °F - 39.2 °F 71% 29.65 in 6.2 mi SSW 18.4 mph - N/A   Scattered Clouds
12:55 PM 48.2 °F - 37.4 °F 66% 29.65 in 6.2 mi SSW 20.7 mph - N/A   Overcast
1:00 PM 49 °F - 39 °F 58% 29.66 in 12 mi SSW 20.1 mph - -   Partly Cloudy
1:25 PM 48.2 °F - 39.2 °F 71% 29.62 in 6.2 mi SSW 17.3 mph - N/A   Partly Cloudy
1:55 PM 48.2 °F - 37.4 °F 66% 29.62 in 6.2 mi SSW 18.4 mph - N/A   Unknown
2:00 PM 49 °F - 38 °F 57% 29.62 in 11 mi SSW 17.9 mph - -   Mostly Cloudy
2:25 PM 48.2 °F - 39.2 °F 71% 29.59 in 6.2 mi South 13.8 mph - N/A   Unknown
2:55 PM 48.2 °F - 37.4 °F 66% 29.59 in 6.2 mi SSW 16.1 mph - N/A   Partly Cloudy
3:00 PM 48 °F - 37 °F 57% 29.60 in 10 mi South 13.4 mph - -   Partly Cloudy
3:25 PM 48.2 °F - 37.4 °F 66% 29.56 in 6.2 mi South 12.7 mph - N/A   Unknown
3:55 PM 48.2 °F - 37.4 °F 66% 29.53 in 6.2 mi South 13.8 mph - N/A   Partly Cloudy
4:00 PM 48 °F - 37 °F 56% 29.55 in 11 mi South 11.2 mph - -   Scattered Clouds
4:25 PM 48.2 °F - 37.4 °F 66% 29.50 in 6.2 mi SSE 12.7 mph - N/A Rain Light Rain
4:55 PM 46.4 °F 40.7 °F 37.4 °F 71% 29.50 in 6.2 mi South 12.7 mph - N/A   Drizzle
5:00 PM 46 °F - 39 °F 69%  in 6 mi South 17.9 mph - - Rain Light Rain Showers
5:25 PM 44.6 °F 37.8 °F 41.0 °F 87% 29.50 in 5.6 mi South 15.0 mph - N/A Rain Light Rain Showers
5:55 PM 42.8 °F 35.8 °F 39.2 °F 87% 29.47 in 6.2 mi SSE 13.8 mph - N/A Rain Light Rain
6:00 PM 43 °F - 40 °F 84% 29.49 in 9 mi SE 11.2 mph - - Rain Light Rain
6:25 PM 42.8 °F 36.6 °F 39.2 °F 87% 29.44 in 6.2 mi SE 11.5 mph - N/A   Light Drizzle
6:55 PM 42.8 °F 36.6 °F 39.2 °F 87% 29.44 in 6.2 mi SSE 11.5 mph - N/A   Drizzle
7:00 PM 44 °F - 39 °F 76% 29.44 in 11 mi SE 13.4 mph - - Rain Drizzle
7:25 PM 44.6 °F 38.4 °F 39.2 °F 81% 29.39 in 6.2 mi SSE 12.7 mph - N/A   Overcast
7:55 PM 46.4 °F 41.5 °F 39.2 °F 76% 29.39 in 6.2 mi South 10.4 mph - N/A   Unknown
8:00 PM 46 °F - 38 °F 67% 29.40 in 28 mi South 8.9 mph - - Rain Rain
8:25 PM 46.4 °F 41.1 °F 37.4 °F 71% 29.36 in 6.2 mi South 11.5 mph - N/A   Unknown
8:55 PM 48.2 °F - 37.4 °F 66% 29.36 in 6.2 mi South 13.8 mph - N/A   Unknown
9:00 PM 48 °F - 37 °F 57% 29.36 in 28 mi South 13.4 mph - -   Overcast
9:25 PM 48.2 °F - 37.4 °F 66% 29.33 in 6.2 mi South 13.8 mph - N/A   Unknown
9:55 PM 48.2 °F - 37.4 °F 66% 29.33 in 6.2 mi South 15.0 mph - N/A   Unknown
10:00 PM 49 °F - 37 °F 54% 29.34 in 28 mi South 13.4 mph - -   Overcast
10:25 PM 50.0 °F - 37.4 °F 62% 29.30 in 6.2 mi South 13.8 mph - N/A   Unknown
10:55 PM 50.0 °F - 37.4 °F 62% 29.30 in 6.2 mi South 16.1 mph - N/A   Unknown
11:00 PM 49 °F - 37 °F 53% 29.30 in 25 mi South 17.9 mph - -   Overcast
11:25 PM 50.0 °F - 37.4 °F 62% 29.27 in 6.2 mi South 15.0 mph - N/A   Unknown
11:55 PM 50.0 °F - 37.4 °F 62% 29.27 in 6.2 mi South 17.3 mph - N/A   Unknown